Theta_e
334 334 335 341 339 339 340 340 339 339 338 339 339 337 337 336 336 335 335 334 334 332 332 332 331 331 331 330 330 330 329 330 329 330 329 329 328 327 327 327 326 326 326 327 327 327 327 326 326 328 328 327 327 327 326 325 324 323 324 324 324 325 324 325 325 325 326 327 328 329 329 331 331 332 331 328 327 328 324 325 326 322 321 326 330
333 335 336 336 340 339 339 339 339 339 338 338 338 337 336 334 334 334 334 332 331 332 331 331 331 330 329 329 331 330 330 329 329 328 328 328 327 327 327 327 325 324 325 326 327 327 327 327 328 328 327 327 327 327 325 324 323 323 324 323 324 324 324 324 324 324 324 324 324 325 325 327 328 332 332 330 330 328 326 328 326 323 320 328 329
335 336 336 336 339 339 339 339 339 338 338 338 338 337 336 335 334 332 333 333 333 332 331 330 331 330 329 329 329 330 329 328 329 328 328 328 327 327 326 326 325 325 325 325 325 327 327 327 327 327 327 327 326 325 324 322 322 323 323 323 323 323 323 323 323 323 322 322 321 320 319 321 323 328 331 331 330 330 327 327 326 326 323 329 328
335 336 336 336 338 339 338 339 339 338 337 337 337 336 336 335 334 334 334 333 332 332 331 330 330 330 329 329 329 330 328 328 328 327 327 327 326 325 326 326 326 325 326 325 325 325 326 326 326 326 326 326 325 324 323 321 322 323 322 322 322 322 323 323 322 321 320 319 318 315 311 307 311 321 329 331 330 330 326 326 326 326 327 327 327
335 336 335 334 334 337 338 338 338 337 337 337 336 335 335 334 334 333 333 332 332 331 330 331 330 329 329 330 329 327 327 327 326 327 326 326 326 326 326 325 325 325 325 325 325 325 325 325 325 325 325 325 325 323 322 322 322 322 322 322 321 322 322 321 320 319 317 317 315 311 306 307 307 317 330 330 328 325 325 326 325 325 324 324 325
335 336 333 333 332 334 338 338 337 337 337 336 336 335 335 334 333 333 332 331 331 329 330 330 330 329 329 329 328 327 327 326 326 325 325 326 325 325 325 325 324 324 325 325 324 325 325 325 324 324 324 324 323 322 322 322 322 321 321 321 320 320 320 319 318 317 315 313 311 304 305 307 307 310 326 328 325 322 325 325 324 324 323 322 324
335 333 333 332 332 335 338 337 336 337 337 336 335 335 334 333 332 332 332 331 331 329 329 329 329 329 329 329 328 327 327 326 326 325 325 325 324 324 324 324 324 324 324 324 324 324 324 323 323 323 323 323 323 322 321 321 321 321 320 319 320 319 318 317 315 315 313 306 300 301 305 307 306 307 324 322 323 322 322 323 322 322 321 321 321
333 332 332 332 332 337 338 337 336 337 337 336 335 334 334 334 333 331 331 331 330 330 329 328 328 328 328 328 327 327 326 325 326 325 325 325 324 323 323 323 322 323 323 323 323 323 323 322 322 322 322 322 322 322 321 320 319 320 319 318 317 316 315 314 314 312 311 300 300 300 303 307 305 306 322 324 323 324 323 322 322 323 323 322 319
331 331 332 332 334 338 337 337 336 335 336 335 335 333 333 333 332 331 331 330 329 329 328 327 327 327 327 326 326 325 325 326 325 324 325 324 323 323 323 323 323 323 323 323 323 322 322 322 321 321 321 321 321 320 320 319 319 318 317 316 315 314 313 312 311 309 300 298 299 299 301 307 304 304 320 325 325 323 321 320 320 322 321 319 319
331 331 332 332 333 337 336 336 335 335 335 335 334 334 333 332 331 331 330 329 329 328 328 327 326 327 327 325 325 325 325 325 325 324 324 323 323 323 322 322 322 322 322 322 322 322 321 321 321 320 320 320 319 319 318 317 316 313 313 313 313 312 311 310 308 304 296 296 298 298 302 312 304 303 318 322 323 322 321 317 319 319 318 319 320
330 331 331 331 332 336 336 336 334 334 335 334 334 333 332 331 330 329 329 329 328 328 327 326 326 326 325 324 324 324 324 323 323 324 323 322 322 322 322 321 322 321 321 321 321 320 320 320 320 319 319 318 318 318 317 317 315 312 310 311 311 310 310 308 303 294 295 295 297 299 301 309 303 305 320 322 322 321 319 319 318 319 319 319 319
330 330 330 331 336 336 336 335 334 334 334 334 333 332 330 329 328 328 328 328 328 327 326 326 325 324 325 325 323 323 323 322 322 322 322 321 322 321 321 322 321 321 320 320 320 320 319 319 319 319 318 317 317 316 316 316 314 311 309 308 308 308 308 305 295 294 294 295 296 300 298 299 301 311 320 322 321 320 319 318 318 318 318 317 319
329 329 330 331 331 335 335 334 334 332 333 332 331 330 329 329 328 327 327 327 326 326 325 324 323 322 322 323 323 322 322 322 321 322 321 321 321 321 321 321 321 320 319 319 318 318 318 318 319 319 318 317 315 315 315 315 314 311 309 307 306 306 305 304 292 292 295 295 296 297 297 299 301 317 317 319 320 320 320 319 319 318 317 319 319
328 329 329 329 330 335 334 333 333 332 332 331 330 329 329 328 328 326 326 325 325 324 323 322 322 322 321 321 320 320 320 320 321 321 321 321 321 320 320 320 321 319 319 318 317 317 317 317 317 317 317 316 315 314 314 314 312 310 308 306 304 303 300 297 297 290 293 295 297 298 296 300 304 316 317 318 319 319 319 318 318 317 318 318 318
328 328 328 329 330 330 333 332 331 331 330 330 329 328 328 328 327 325 325 324 324 323 323 322 321 321 320 320 320 319 318 318 318 318 319 319 319 319 319 319 319 319 318 318 316 315 315 315 316 316 315 314 314 313 313 312 311 309 307 305 303 302 300 288 290 289 291 296 295 296 295 297 312 315 316 317 317 317 317 317 317 316 316 316 317
327 327 328 327 328 328 328 330 330 330 330 329 328 328 327 326 326 325 324 323 322 322 321 321 320 319 319 319 319 318 317 316 316 316 316 317 318 318 318 318 318 318 318 317 315 314 314 314 314 314 314 314 313 312 311 309 308 307 305 304 302 301 300 295 288 288 290 294 294 296 296 298 314 315 315 316 316 317 316 316 317 315 316 316 317
327 326 325 324 324 325 326 326 328 329 329 327 326 326 325 325 324 324 323 322 322 321 320 319 318 318 317 317 317 316 315 314 314 314 314 314 315 316 316 316 317 317 316 315 315 314 313 312 311 312 313 313 312 310 309 307 306 304 303 302 300 300 299 295 287 287 290 296 295 294 296 302 312 315 315 315 315 315 315 315 315 315 315 316 316
324 323 322 322 323 322 322 322 322 322 322 324 326 325 322 321 320 320 320 320 319 318 317 317 316 316 315 315 314 314 314 313 312 312 311 311 312 313 314 315 315 316 315 315 314 313 312 310 309 309 311 312 311 309 308 306 304 303 301 300 299 298 298 295 286 287 289 296 293 296 296 311 312 313 314 314 314 314 314 314 315 314 314 314 314
321 320 319 319 318 317 316 317 317 316 316 316 318 321 321 319 318 318 317 317 316 315 314 313 312 311 310 310 311 311 310 311 310 309 310 310 309 309 311 313 313 314 314 314 313 312 311 310 308 306 307 309 309 307 306 305 303 302 300 299 297 296 295 290 286 286 289 290 294 294 300 311 312 313 314 314 314 314 313 315 314 313 313 315 315
318 317 316 315 314 313 314 314 313 312 311 311 312 314 319 318 316 315 314 314 314 312 311 311 310 309 309 307 306 302 304 304 307 304 307 307 307 305 307 309 311 311 312 312 311 310 310 309 308 305 304 304 306 306 304 303 302 300 299 297 296 293 285 284 284 286 286 290 296 293 308 310 312 313 313 313 314 314 314 314 313 313 314 315 315
317 316 314 312 311 311 310 310 309 308 309 310 311 312 315 316 315 313 312 311 310 309 308 307 306 305 304 305 303 298 296 296 297 298 302 302 304 305 305 305 307 308 309 309 309 309 308 307 306 305 303 301 300 302 303 302 300 299 298 296 294 285 285 284 284 287 288 289 294 296 308 310 311 312 312 313 314 314 314 313 314 313 314 313 313
315 314 312 310 309 308 307 307 307 306 306 306 305 305 306 306 302 302 303 304 305 305 302 300 302 297 301 298 297 299 296 295 296 299 297 299 299 302 303 303 303 304 305 306 306 306 306 305 305 303 301 300 298 286 288 298 299 298 296 294 286 284 284 284 284 285 288 289 293 302 307 309 311 311 312 313 313 313 312 312 312 312 313 312 312
313 312 310 309 307 306 305 305 304 303 303 303 303 303 300 300 300 301 303 304 303 301 297 298 295 295 295 295 296 294 295 296 297 297 296 298 297 300 300 300 301 300 300 301 302 302 303 303 302 301 300 297 287 285 284 284 287 296 293 286 283 284 284 284 284 283 285 291 291 304 306 308 310 311 312 312 312 312 311 311 312 312 312 312 312
312 311 308 307 306 305 304 303 302 302 301 300 300 299 299 298 298 298 298 298 298 298 296 295 295 295 295 294 294 294 292 292 297 296 294 289 290 295 296 295 295 297 296 292 295 298 297 297 299 296 292 289 284 285 285 284 284 284 285 284 283 283 284 284 283 283 283 288 294 303 304 306 308 309 311 311 311 311 310 310 311 311 311 311 311
312 309 308 305 303 303 303 303 302 301 300 301 299 299 298 298 297 297 297 297 296 296 296 295 295 294 294 294 293 293 291 290 289 289 288 288 287 287 287 286 286 286 293 284 285 286 286 283 284 287 283 285 284 284 286 284 285 285 284 284 285 283 283 284 283 283 283 285 293 301 303 304 307 308 311 311 311 310 310 310 310 310 310 310 309
310 309 306 303 302 301 301 301 301 301 300 300 300 302 299 297 297 297 297 296 297 295 295 295 295 295 294 294 293 291 290 289 288 288 288 287 287 286 286 286 285 285 288 284 284 284 284 283 284 284 283 283 284 284 284 286 284 284 284 284 284 283 283 282 282 282 283 284 290 299 301 302 304 307 307 310 311 309 309 309 309 309 309 309 308
309 308 305 302 299 299 300 301 301 300 300 301 300 299 298 298 297 297 296 296 296 295 295 295 295 294 294 295 292 291 289 288 288 287 287 287 286 286 285 285 284 284 286 284 284 284 283 284 283 283 283 283 283 284 283 282 282 283 283 283 283 283 283 282 282 282 282 283 289 297 299 300 302 304 304 307 309 309 308 308 308 308 308 308 308
309 305 304 300 299 299 300 300 301 301 301 300 299 299 299 299 301 300 298 300 297 295 295 295 295 295 295 295 293 290 288 287 287 287 287 287 286 286 285 285 285 284 285 285 283 283 283 283 283 283 283 283 282 284 283 282 282 282 283 283 283 283 282 282 283 283 282 282 285 294 296 298 300 301 302 305 307 308 308 308 307 307 308 308 307
306 304 302 298 298 300 300 300 301 301 300 300 299 300 300 299 299 298 298 300 296 295 295 294 294 295 294 294 293 289 288 288 287 287 286 286 286 285 285 284 285 284 284 283 284 283 283 283 283 283 283 282 282 284 283 282 281 282 282 282 282 282 283 283 282 282 281 281 282 290 295 296 297 298 300 303 305 306 306 306 306 307 307 307 307
306 303 299 297 299 300 300 301 301 300 300 301 300 299 298 298 298 298 298 298 295 295 294 293 292 292 292 293 293 290 288 287 287 286 286 285 285 285 285 284 284 284 283 283 284 282 282 282 283 283 283 282 282 283 282 281 281 281 282 282 282 282 282 282 282 282 281 281 281 284 292 293 295 296 297 299 302 304 304 305 306 306 306 306 306
305 300 298 297 300 300 300 301 301 302 301 300 299 298 299 298 298 297 296 295 296 295 294 292 292 292 293 292 292 292 289 288 287 286 286 285 285 285 284 284 283 283 283 283 284 283 282 282 282 283 283 282 282 282 282 281 280 281 281 282 282 283 283 283 283 282 281 280 280 282 285 290 292 293 295 297 300 301 302 303 304 305 304 305 306
302 298 297 298 299 299 299 301 301 303 301 301 300 299 298 298 297 296 295 295 295 293 293 293 295 292 292 291 291 291 292 288 287 286 285 285 284 284 284 283 283 283 284 282 283 282 283 283 283 283 283 281 282 282 282 280 280 280 280 281 282 283 282 282 282 282 281 280 280 280 281 284 288 291 292 294 296 299 300 301 301 302 304 304 305
302 300 297 299 298 299 300 302 303 302 302 301 299 299 298 298 297 296 297 296 294 293 292 292 292 292 292 291 291 291 290 287 287 287 288 284 284 284 284 284 282 282 283 283 282 282 282 282 283 284 283 281 282 282 282 281 280 280 280 282 282 283 282 282 282 281 280 280 279 279 279 282 281 286 288 291 293 296 298 299 300 300 302 304 304
300 298 298 299 300 301 302 302 302 303 303 302 301 299 298 298 298 297 296 294 294 293 294 292 293 291 291 290 290 290 288 287 286 285 285 284 284 283 283 283 282 282 282 283 281 281 282 282 283 282 285 282 281 281 280 280 280 280 281 281 282 282 281 282 281 280 279 279 279 278 279 279 279 280 281 286 289 293 295 297 298 298 299 301 303
300 298 298 299 300 301 302 302 303 303 303 302 301 301 301 298 297 295 295 294 293 291 290 290 290 290 290 289 290 290 288 287 286 285 284 284 283 283 283 282 282 282 281 282 281 281 282 282 283 281 281 281 280 282 280 280 280 280 281 282 282 282 282 281 281 280 279 278 279 278 278 279 279 280 280 277 283 288 292 294 295 295 296 298 300
299 299 299 300 301 302 303 303 303 302 302 303 302 302 301 300 300 297 294 293 292 291 290 290 290 289 290 289 289 290 288 287 286 285 284 283 283 282 282 283 282 281 281 281 282 281 281 282 282 281 280 280 280 279 280 279 280 280 281 282 282 283 280 280 280 280 279 279 278 278 278 278 279 279 281 277 277 282 289 291 292 293 293 294 295
300 300 300 300 300 301 302 302 302 303 303 302 301 300 300 300 297 295 294 293 292 291 291 290 290 289 288 288 288 289 286 286 286 284 283 283 282 282 282 282 282 281 280 280 281 282 280 282 281 282 280 279 279 279 279 279 280 280 281 280 280 281 280 281 280 280 280 278 277 277 277 277 280 281 276 277 277 277 283 288 289 289 289 291 293
301 301 301 301 302 303 303 303 303 304 303 302 301 300 300 299 296 295 296 293 292 292 291 290 290 289 289 288 288 288 287 286 285 285 285 284 282 282 281 282 282 281 280 280 281 281 280 280 280 280 281 280 279 278 278 278 280 280 280 279 279 279 279 280 282 283 280 279 278 277 277 276 277 277 277 277 276 277 277 281 285 285 286 288 291
301 301 302 302 302 302 303 303 303 303 303 302 301 300 299 298 296 294 293 292 292 291 291 290 290 289 288 288 288 288 288 285 285 285 283 282 282 282 281 281 281 280 281 280 280 281 281 280 280 279 280 280 279 278 278 279 279 280 280 279 278 278 279 281 279 279 278 279 281 280 278 276 276 277 277 276 276 276 276 276 276 276 278 286 288
302 302 302 302 302 303 303 303 302 303 302 301 300 299 298 298 294 293 292 292 292 293 290 290 290 289 290 288 287 286 287 286 285 284 283 282 281 281 281 281 281 280 280 280 279 279 279 278 280 280 278 280 280 279 279 277 278 279 281 279 279 279 279 280 278 279 279 277 277 277 277 277 276 276 277 276 276 276 276 276 279 276 277 280 285
302 302 301 301 302 302 302 301 302 302 301 299 299 298 297 296 295 293 292 291 291 291 290 289 289 289 288 288 287 286 285 286 285 284 283 284 282 280 280 280 281 281 281 279 279 279 280 279 279 281 280 279 279 279 279 278 277 278 277 278 278 280 282 280 278 278 277 277 277 276 276 276 276 276 276 276 276 276 276 276 276 276 277 276 278
300 301 300 301 302 302 302 301 302 302 301 300 299 299 299 298 295 293 291 291 291 289 288 289 290 290 288 287 287 285 285 285 286 285 283 281 281 280 280 280 281 281 281 281 280 282 279 279 278 277 279 279 278 279 279 277 277 276 276 277 277 277 280 279 277 278 277 277 277 276 276 276 276 276 276 276 275 275 276 276 276 276 276 276 276
300 300 301 301 301 301 302 302 301 301 301 301 300 299 299 297 294 293 292 290 291 291 290 291 290 287 287 286 286 285 285 285 285 285 282 281 280 280 280 279 280 281 279 278 278 278 278 278 278 278 277 278 279 280 278 278 276 276 276 278 276 275 280 278 276 277 277 277 276 276 276 276 276 275 277 276 275 275 276 276 276 276 276 276 276
300 300 301 300 301 301 301 301 301 302 301 301 301 300 299 295 294 293 292 290 289 291 289 289 288 287 286 286 286 285 284 284 284 284 282 281 280 280 280 279 279 279 278 278 278 278 278 278 278 279 277 277 277 277 280 278 277 276 276 277 276 276 275 275 275 277 276 276 276 275 276 276 276 276 276 275 275 275 276 276 276 275 276 276 276
299 299 300 300 301 301 301 301 301 301 301 302 301 299 297 295 293 291 291 289 289 288 287 287 288 288 287 285 285 284 284 284 283 283 284 280 279 279 279 279 278 278 279 278 278 278 277 277 278 278 277 277 276 276 278 279 278 279 277 276 275 275 275 275 275 274 275 276 275 275 278 275 276 277 275 275 275 275 276 276 276 275 276 275 276
299 300 300 301 301 301 302 302 301 301 301 301 299 298 296 294 292 290 289 287 286 286 286 286 286 286 285 285 284 284 284 283 282 282 283 282 279 279 278 279 278 279 279 278 278 278 278 278 278 278 278 278 277 276 276 278 279 279 277 277 275 276 274 274 274 274 275 276 276 276 274 274 276 276 275 275 275 275 277 276 275 275 276 275 275
300 301 301 301 302 301 301 301 301 301 301 300 299 299 296 295 292 291 291 290 288 288 288 288 287 286 285 283 283 283 283 283 282 281 281 281 279 278 279 279 279 279 281 278 278 278 278 278 280 278 279 280 277 276 276 276 276 278 278 277 278 277 276 274 272 273 273 274 274 275 275 275 276 275 275 275 275 275 275 277 275 275 275 275 275
300 301 300 301 301 301 301 301 301 301 300 300 299 299 296 295 292 291 291 290 289 289 288 287 286 286 284 283 282 282 282 282 281 280 280 280 279 279 278 278 279 279 280 278 278 278 279 279 279 279 279 278 277 277 276 276 275 275 278 277 277 277 276 276 275 274 273 271 274 276 274 276 276 275 275 274 275 275 275 275 275 276 275 275 275
300 300 300 300 301 301 301 301 301 301 300 300 299 298 298 296 293 292 291 291 290 289 289 288 286 287 284 283 282 281 281 280 281 280 279 281 281 279 278 278 279 279 281 279 278 278 277 277 277 278 278 278 279 278 276 276 276 275 275 275 275 275 275 275 275 275 273 271 271 272 274 275 274 274 274 275 275 275 275 275 276 277 277 275 275
300 301 301 300 300 300 300 300 300 300 300 299 299 298 298 297 294 292 292 290 290 288 287 287 286 286 285 283 282 281 280 280 279 279 279 279 279 279 278 278 279 280 280 277 277 278 278 277 277 277 278 278 278 277 277 276 276 276 275 276 275 275 275 274 274 273 273 273 271 271 272 271 271 273 275 274 276 276 275 275 274 274 274 274 275
300 300 300 300 300 300 300 299 299 300 300 299 299 298 297 296 294 293 291 290 289 288 287 286 286 285 284 283 281 281 280 279 280 279 278 278 278 280 278 278 280 282 280 278 278 278 277 277 277 278 277 277 277 277 278 277 276 276 275 275 275 275 274 273 272 273 272 271 271 271 272 272 272 271 273 275 276 275 274 274 274 274 275 274 275
Wind_Speed
5 7 4 12 16 16 16 15 14 14 15 14 15 16 16 16 17 17 17 17 17 16 15 16 15 15 16 16 16 16 17 17 17 16 17 17 17 17 17 17 17 17 17 17 18 18 18 18 18 18 18 19 19 19 19 19 19 19 18 19 19 19 19 19 19 20 20 20 20 20 21 20 21 21 16 17 18 18 15 16 15 10 5 13 21
9 6 4 8 17 17 17 16 15 14 15 15 15 16 16 16 16 16 16 16 15 15 15 15 15 15 16 15 16 17 16 17 16 16 17 17 17 17 17 17 17 17 17 17 18 18 18 18 18 18 18 18 19 19 19 19 18 18 18 18 18 18 18 19 19 19 19 20 20 20 21 21 21 21 19 19 19 18 18 18 19 13 6 17 18
9 8 4 9 17 17 16 16 15 15 15 15 15 16 16 15 15 15 16 16 16 16 15 15 15 15 15 15 15 16 17 16 16 17 16 16 16 16 17 17 17 17 17 18 18 17 18 18 18 18 18 18 18 18 18 18 17 17 17 18 18 18 18 19 19 19 19 20 19 19 19 19 20 21 21 20 19 20 19 18 18 16 11 20 18
12 8 5 12 17 16 16 16 15 16 15 15 16 16 16 16 16 16 16 16 16 15 14 15 15 15 15 15 16 16 17 16 17 16 16 16 16 16 17 17 17 17 18 17 17 17 18 18 18 18 17 17 18 17 18 17 17 17 17 17 18 18 19 19 19 19 19 19 19 16 8 9 12 18 20 21 22 21 19 19 19 19 21 20 22
12 8 7 9 10 15 17 16 16 16 15 15 15 16 15 16 16 16 16 16 15 15 14 14 14 15 15 16 16 16 16 15 15 15 16 16 17 16 17 17 17 17 18 17 17 18 18 18 18 18 17 17 18 18 18 17 18 18 17 18 18 18 19 19 19 19 19 19 18 13 8 9 8 17 21 22 22 21 21 21 20 20 21 21 22
11 8 8 8 8 11 17 16 16 16 16 16 16 16 16 15 15 16 15 15 15 15 15 14 15 15 15 16 15 15 15 15 15 15 16 16 16 16 17 17 16 17 17 17 17 18 18 18 18 18 17 17 17 18 18 18 18 17 18 18 18 18 19 19 19 19 19 18 17 8 8 8 7 7 18 22 22 22 22 21 21 21 20 20 21
11 8 9 8 7 10 16 17 17 17 17 16 16 16 16 15 16 15 15 15 14 15 15 15 15 15 15 15 16 15 15 15 15 15 16 16 16 16 16 16 16 16 16 16 17 18 18 18 17 17 17 17 18 18 18 18 18 18 17 17 18 18 18 19 19 19 19 12 7 7 8 9 8 7 19 19 21 20 22 20 19 18 19 19 21
9 8 8 8 7 12 15 17 18 17 17 17 16 16 16 16 15 15 15 15 14 15 15 15 14 15 15 15 15 15 15 15 15 15 16 16 16 16 16 16 16 16 16 16 17 17 17 17 17 17 17 17 17 18 18 17 17 18 17 17 17 18 18 18 19 18 18 9 8 7 8 9 10 8 15 21 20 21 21 20 19 19 19 19 17
10 9 9 8 9 15 15 16 17 18 17 17 17 17 16 16 15 15 14 14 14 15 15 15 15 15 15 15 15 15 15 15 15 15 15 15 16 16 16 16 16 16 16 16 16 16 17 17 17 17 17 17 17 17 17 18 17 17 17 17 17 17 18 18 18 17 10 7 7 8 9 8 8 8 13 20 21 22 21 18 15 19 19 19 19
10 9 9 7 9 15 15 16 17 18 17 17 17 17 16 16 15 15 15 14 15 15 15 15 15 15 15 15 15 14 15 14 14 15 15 15 15 16 16 16 16 16 16 16 16 16 16 17 17 17 17 17 17 17 17 17 17 17 17 17 17 17 18 18 17 13 7 7 8 8 8 12 6 7 14 19 20 22 21 20 16 17 16 19 20
10 9 7 8 11 15 15 17 18 18 17 17 17 17 17 16 15 15 14 15 15 15 15 15 15 15 15 15 15 15 15 14 14 14 14 14 15 15 16 15 16 16 16 16 16 16 16 16 16 17 17 17 17 17 17 17 17 17 18 18 18 18 18 18 14 7 7 8 9 8 9 15 8 5 18 18 19 19 20 20 20 20 20 21 21
10 9 8 8 13 15 15 17 18 18 18 18 17 17 17 16 15 15 15 15 15 16 16 15 15 15 15 15 15 14 14 14 14 14 14 14 14 14 15 15 15 16 16 16 16 16 16 16 16 17 17 16 16 17 16 16 16 17 18 18 18 17 18 18 9 7 7 8 7 7 8 9 10 9 20 21 19 18 19 19 18 18 18 18 19
11 10 8 8 9 14 15 16 17 18 18 18 17 17 17 16 15 15 15 15 16 16 16 16 15 15 15 15 15 14 14 14 14 14 14 14 14 14 14 15 15 15 16 16 16 15 15 16 16 16 16 16 16 16 16 16 16 17 18 18 18 18 16 16 7 8 7 7 7 8 8 7 9 18 19 18 18 19 19 19 20 20 20 21 20
11 10 8 8 8 14 15 16 17 17 18 18 18 17 17 16 16 16 15 15 16 16 16 16 16 15 15 14 14 14 14 15 15 15 14 14 14 14 14 15 15 15 16 16 15 15 16 16 16 16 16 15 15 16 16 16 17 16 17 17 17 17 16 10 9 6 7 7 6 8 8 7 7 19 19 18 18 19 19 20 20 20 20 20 20
11 10 9 8 8 9 16 16 16 17 18 18 18 17 17 17 16 16 16 16 16 16 16 16 15 15 14 14 15 15 15 15 16 16 15 14 14 14 14 14 14 15 15 16 15 16 16 16 16 16 15 15 15 16 17 16 16 16 16 17 16 16 14 6 6 6 6 6 6 8 8 7 12 18 19 19 18 19 20 19 19 20 20 19 19
10 10 9 8 7 8 9 15 15 15 16 17 17 17 18 17 17 16 16 15 16 16 16 15 15 14 14 14 15 15 15 15 15 16 15 15 14 14 15 15 14 15 15 15 15 16 16 17 16 16 15 15 15 16 16 16 16 16 16 16 16 15 15 8 6 5 6 6 7 6 8 7 16 18 18 19 19 18 19 20 20 20 21 21 20
8 8 10 8 8 8 10 10 12 16 15 15 16 17 17 17 17 16 15 15 16 15 15 15 15 15 15 14 15 16 16 16 15 15 15 15 15 14 14 15 15 15 15 15 15 15 16 16 16 16 15 15 15 15 15 15 15 15 15 16 15 15 13 10 5 5 6 7 6 7 7 5 15 18 18 18 19 19 20 20 19 20 21 22 21
7 8 9 8 8 8 8 8 9 8 9 12 15 15 16 17 17 17 16 16 16 16 15 15 15 15 15 15 15 15 16 16 15 15 15 14 15 15 15 15 15 15 15 15 15 15 15 15 16 16 16 15 15 15 15 15 15 15 15 15 15 14 13 10 5 6 6 6 7 6 6 13 17 18 19 19 20 19 19 19 21 21 20 20 21
8 8 7 9 8 8 9 8 8 8 8 7 6 10 15 16 17 16 16 16 16 16 16 15 15 15 15 15 15 15 15 15 15 14 14 15 14 14 15 15 15 15 15 15 15 15 15 15 16 17 16 15 14 14 15 16 15 15 15 15 14 13 12 7 5 6 6 6 6 7 6 18 17 19 18 19 19 20 19 20 20 20 21 21 21
8 7 7 7 7 9 8 8 8 8 7 7 7 7 12 16 16 16 16 16 16 16 16 15 15 15 16 15 15 11 11 10 15 11 14 15 15 13 15 14 14 15 15 15 14 14 15 15 15 16 16 15 14 14 15 15 15 15 15 14 12 11 6 5 5 6 6 6 6 6 12 18 18 18 18 19 19 19 20 20 20 21 21 22 21
6 7 7 7 7 9 9 8 7 8 8 7 7 7 9 12 12 16 17 16 15 15 15 14 12 12 11 13 12 8 6 5 7 7 12 9 13 14 14 14 14 15 15 15 15 15 15 15 15 15 15 15 14 14 14 14 14 15 14 12 10 6 6 6 6 6 6 6 7 6 18 17 18 19 19 19 19 19 20 20 21 21 21 20 20
7 7 6 6 8 8 9 8 8 8 8 7 6 6 7 9 8 8 7 9 10 11 9 7 8 6 10 8 6 5 5 5 5 7 6 7 9 14 14 15 15 15 15 15 15 15 15 15 15 15 14 13 13 7 7 10 13 13 12 10 5 5 5 5 6 6 6 6 6 10 19 19 18 19 19 19 19 20 19 20 20 21 20 21 21
9 7 6 6 6 8 8 9 7 7 9 7 6 6 7 6 6 7 7 9 8 7 6 6 6 6 6 6 5 5 5 4 5 7 7 11 10 14 14 15 15 15 15 15 15 15 15 15 15 14 13 13 7 5 5 5 5 9 7 5 4 5 5 6 5 6 7 6 5 17 19 19 19 19 19 19 19 19 19 20 21 21 21 22 21
9 8 7 5 6 8 9 9 8 7 8 7 6 6 5 6 6 5 6 6 6 6 6 5 6 6 5 5 5 5 5 5 8 11 9 5 7 11 14 13 14 14 15 10 12 13 15 14 14 14 9 5 5 5 5 4 3 3 3 3 4 5 5 5 6 6 6 7 7 20 19 20 20 20 19 19 19 20 21 21 21 22 22 22 22
9 8 6 6 6 8 9 9 7 7 8 7 7 6 5 6 5 5 5 5 5 6 5 5 5 5 5 5 5 5 5 5 4 5 5 5 5 6 6 6 6 7 10 7 6 7 7 6 6 7 5 5 5 5 4 4 3 3 3 4 4 4 5 6 6 6 6 7 8 19 19 20 21 21 20 19 20 20 20 21 21 22 21 21 21
9 9 9 6 6 7 8 8 7 6 6 7 7 6 6 6 5 5 6 5 5 5 5 5 5 5 4 4 5 6 5 5 3 4 5 5 6 6 6 5 6 6 5 5 5 5 5 5 6 6 5 5 4 3 3 2 3 3 3 3 4 4 6 6 6 6 6 6 8 19 19 19 20 21 20 20 19 20 20 21 21 21 21 21 21
10 10 9 7 7 7 7 8 8 7 7 7 6 5 5 5 5 5 6 5 5 5 4 4 5 4 3 3 5 5 5 4 4 4 5 5 6 5 6 5 5 5 5 5 5 5 5 5 5 5 4 4 4 3 3 3 3 2 3 3 3 3 5 5 5 6 6 6 8 18 18 19 20 20 21 20 20 20 21 21 21 20 21 21 22
10 11 9 8 8 9 8 7 8 8 6 6 7 6 5 6 5 5 5 5 5 5 4 5 4 5 3 4 5 5 4 4 4 4 5 5 6 5 5 5 5 5 4 5 5 5 5 5 4 4 5 4 4 3 3 3 3 3 3 3 3 4 4 4 6 5 6 6 6 13 18 19 20 20 21 21 20 20 20 21 20 20 21 21 21
12 12 11 10 9 9 9 8 8 8 7 6 7 5 5 5 5 5 5 5 5 4 4 4 5 4 3 3 4 5 4 4 4 4 4 6 5 5 5 5 5 5 4 5 5 4 5 4 4 4 3 4 4 4 3 3 3 4 3 3 3 4 4 5 5 5 5 6 6 10 19 19 19 20 21 20 20 20 20 21 20 21 21 21 22
13 13 12 10 10 10 10 9 8 7 7 7 6 5 5 5 5 5 4 5 5 4 4 5 4 4 4 3 4 4 4 4 4 4 6 6 5 5 5 5 5 5 5 5 4 4 4 3 4 3 4 3 4 4 3 3 4 3 3 3 3 3 3 5 5 5 5 6 6 7 17 18 19 19 20 19 20 20 21 20 21 22 21 21 22
12 13 11 10 10 11 10 8 6 7 6 7 6 6 5 5 6 5 4 5 5 5 5 5 5 4 4 3 3 4 4 3 4 4 5 5 5 5 5 5 5 5 4 4 3 3 2 3 3 4 4 4 4 3 4 4 4 4 3 3 3 4 5 5 4 5 6 6 6 6 8 17 18 19 19 19 20 20 20 21 22 22 22 22 22
14 13 11 11 11 11 10 9 9 7 6 7 5 6 5 5 6 6 5 5 4 5 5 5 4 4 3 3 3 4 3 3 3 4 5 6 5 5 5 5 5 5 5 4 4 3 2 2 3 2 3 3 4 5 4 4 4 4 3 3 3 5 5 4 5 5 5 5 6 6 6 7 15 18 18 19 19 20 20 21 22 22 22 23 23
6 10 13 13 13 12 12 13 11 9 8 8 6 5 4 5 6 5 5 4 5 5 5 4 4 3 3 3 4 4 3 3 4 5 5 6 5 5 5 5 5 4 4 3 3 3 3 3 4 2 3 4 6 6 4 5 4 4 3 3 5 5 4 5 5 5 5 5 6 5 5 5 5 12 16 18 19 19 20 21 22 23 23 23 24
12 10 12 13 10 9 9 8 9 10 8 7 7 5 4 5 4 5 5 5 4 5 4 4 3 4 3 3 4 3 3 3 4 5 5 6 5 5 5 5 5 3 4 4 5 4 5 5 5 4 6 6 7 5 6 6 5 3 4 3 4 4 5 6 5 5 4 5 4 5 5 5 5 5 7 14 18 18 20 21 22 23 23 24 25
9 11 13 13 12 10 9 8 9 10 9 8 7 7 6 5 4 4 5 5 4 5 4 4 4 3 4 4 3 3 3 3 4 6 5 5 5 5 5 4 4 3 4 4 4 4 4 6 5 6 4 7 6 5 5 4 4 5 4 4 4 4 5 5 4 5 5 4 5 4 5 5 5 5 6 6 10 16 20 20 21 23 23 24 25
11 11 11 11 11 9 10 9 10 11 9 8 7 6 6 5 3 4 5 4 5 5 4 4 4 3 4 3 3 3 3 4 4 5 6 5 5 5 4 4 3 4 5 4 4 5 4 5 5 4 6 7 7 6 5 5 4 5 4 5 4 4 6 4 5 4 3 5 5 4 5 5 5 6 7 6 6 9 19 19 21 22 23 24 24
11 12 12 12 14 15 12 13 11 11 10 9 8 7 6 6 5 4 5 5 5 4 4 4 4 4 3 4 3 4 3 4 4 5 6 5 5 5 4 3 3 4 4 4 5 4 4 5 5 5 5 6 7 6 5 5 5 4 4 4 4 4 5 5 4 3 2 6 4 4 4 5 5 7 5 6 6 6 11 18 19 20 21 22 23
9 11 12 12 13 10 9 8 8 8 8 9 7 6 6 5 5 4 4 5 5 4 3 4 4 3 3 3 3 4 3 4 4 4 6 5 4 4 3 4 3 4 4 4 4 4 4 4 4 5 6 7 7 7 6 5 4 4 4 4 4 4 4 5 3 2 4 4 4 4 4 4 5 5 6 5 6 6 6 10 15 16 18 21 23
8 11 12 11 11 11 9 9 9 8 8 8 7 7 6 6 5 4 5 5 4 4 3 4 3 3 3 2 3 4 4 4 4 4 6 5 5 5 5 3 3 3 4 5 5 4 4 4 4 5 5 7 6 5 4 3 3 3 3 3 3 3 3 3 2 3 4 3 3 3 3 5 5 5 6 6 5 6 6 6 6 6 9 20 21
9 10 12 11 11 9 8 7 8 9 8 7 6 6 5 4 5 4 4 3 4 3 3 3 3 3 2 3 3 4 3 4 4 4 5 5 5 4 4 3 3 3 5 6 5 5 4 4 5 5 5 4 7 6 6 4 3 3 2 2 2 2 3 1 2 3 2 3 3 3 5 4 5 5 5 5 5 5 5 6 5 6 6 12 20
9 10 11 11 12 11 10 8 7 9 8 7 6 6 6 4 3 2 3 2 4 3 3 3 3 2 2 3 3 4 3 3 3 4 5 5 4 3 4 4 3 4 5 5 3 4 3 2 2 4 6 9 10 9 8 2 3 1 2 1 2 1 1 2 2 2 3 1 2 3 4 6 5 5 5 5 5 5 5 5 6 5 7 7 10
10 11 12 12 11 10 10 9 7 7 8 8 7 6 4 4 4 4 3 3 4 4 3 2 2 2 2 3 3 4 4 4 3 3 4 4 4 4 3 3 3 4 4 3 4 3 4 4 1 4 5 8 7 7 9 3 4 1 1 1 1 4 2 2 1 2 1 1 1 2 4 6 6 5 4 5 5 5 5 5 5 6 6 7 8
13 12 11 12 11 10 9 9 8 7 6 7 7 6 4 3 3 3 5 4 2 2 3 3 2 3 2 3 3 4 4 4 3 4 5 3 4 4 4 4 4 3 4 5 3 5 5 5 5 3 4 4 5 5 7 6 0 1 1 1 2 4 2 3 1 2 1 1 2 2 3 5 6 4 4 5 5 5 5 5 5 6 6 7 8
11 10 11 12 10 8 9 10 8 7 7 6 6 5 5 6 5 5 4 3 3 3 3 3 3 3 3 3 3 4 4 4 3 4 4 3 3 4 4 4 4 3 4 5 5 6 5 5 4 4 3 6 5 6 5 5 4 0 3 2 1 1 4 1 3 4 1 1 2 2 2 4 5 4 4 5 6 5 5 5 6 5 6 6 7
12 12 11 12 9 11 10 11 10 10 8 6 6 7 7 7 6 5 4 6 5 3 3 2 2 2 3 3 3 3 3 4 4 4 3 3 3 3 4 4 4 3 3 5 5 5 4 3 3 6 7 5 4 2 4 5 7 6 3 3 3 3 0 4 5 4 2 1 3 3 2 4 7 6 4 5 4 5 5 6 5 5 5 6 8
11 10 9 10 10 10 9 8 7 6 8 8 8 7 7 8 6 5 4 2 3 4 6 7 5 4 4 2 3 3 3 4 4 3 3 3 3 3 4 4 4 4 5 5 4 4 5 5 5 4 6 5 5 4 4 2 4 7 8 5 2 1 3 5 3 5 2 0 2 1 2 3 5 5 4 4 6 7 5 5 5 6 5 5 7
10 9 9 10 10 9 10 10 9 7 7 8 9 7 6 6 8 7 6 7 7 4 1 2 4 3 4 4 3 2 3 4 3 3 3 3 3 3 4 4 3 3 3 5 5 4 3 3 3 5 5 3 2 5 4 3 2 6 6 6 6 4 1 1 2 3 6 4 1 3 4 5 5 5 3 3 4 5 6 4 5 5 5 5 6
11 10 9 9 11 10 9 9 7 8 8 7 9 8 8 6 7 5 5 6 6 5 4 3 3 4 4 3 3 2 2 3 4 3 3 3 3 4 4 3 4 3 4 4 4 3 4 4 3 4 5 5 4 5 3 4 4 3 3 6 4 4 5 6 2 0 1 4 9 2 2 7 9 5 1 5 5 6 6 6 6 5 5 5 6
11 11 11 10 9 9 9 8 8 8 8 8 8 9 7 7 7 5 5 3 3 3 4 4 4 4 5 3 3 3 2 2 2 3 3 3 3 4 3 3 3 4 3 4 3 4 4 4 4 5 5 5 3 3 4 5 5 4 3 4 4 4 3 3 3 2 2 0 5 5 12 7 2 2 3 4 4 3 4 5 4 4 4 5 6
8 8 8 9 9 9 10 11 9 7 8 9 8 8 7 6 7 7 7 5 4 4 4 5 4 3 4 4 3 3 3 3 2 3 3 3 3 3 3 3 4 4 3 4 4 4 4 4 3 4 4 5 3 3 4 4 4 3 4 3 4 1 1 2 3 3 2 1 2 7 5 9 10 8 5 5 9 7 4 5 5 4 5 4 6
9 11 11 11 10 10 11 13 11 8 8 9 9 9 8 7 8 9 9 8 7 7 6 4 4 4 5 5 4 4 3 3 3 2 2 3 3 3 3 3 3 3 4 4 4 4 4 3 3 4 4 4 3 4 4 3 4 4 4 5 4 3 1 2 1 2 2 1 4 6 6 2 6 11 4 5 9 7 4 4 4 5 4 5 6
Wind_Direction
152 150 182 147 133 129 126 121 120 114 109 105 97 93 92 88 85 84 84 83 84 81 78 76 75 74 72 73 71 71 70 67 65 65 63 63 61 63 59 59 58 56 55 54 55 53 52 49 49 48 49 50 51 50 49 49 49 50 50 51 49 48 47 45 42 38 36 33 30 27 22 16 15 17 23 40 35 45 27 27 26 11 10 23 29
150 158 172 140 133 131 127 126 122 116 111 106 100 95 91 89 87 86 84 83 81 79 78 78 75 71 73 73 71 70 71 70 67 65 61 59 59 59 60 59 58 58 56 54 55 53 53 51 50 49 50 51 51 50 50 51 52 54 54 53 51 49 49 46 43 39 36 33 30 27 20 14 10 11 32 34 37 35 30 28 25 23 358 23 28
143 151 161 139 134 133 129 127 122 116 113 107 99 98 95 91 89 85 82 82 77 77 78 76 74 74 74 73 72 69 68 69 67 66 66 63 61 60 59 59 59 58 57 56 55 54 53 52 51 50 50 51 52 52 52 53 55 56 56 54 52 51 50 46 42 38 34 32 29 25 16 9 4 10 36 43 39 37 32 29 27 28 14 18 22
138 146 156 139 135 135 132 126 122 118 113 108 103 97 93 89 87 85 85 83 82 82 79 78 76 76 75 73 72 69 66 65 64 64 62 61 60 60 59 59 58 59 58 56 56 55 54 54 53 52 52 51 52 53 53 55 57 57 55 54 52 51 49 45 41 37 33 31 29 26 11 4 357 354 33 42 41 34 32 27 25 25 21 17 17
136 143 145 134 135 137 131 128 124 118 115 110 104 100 96 93 90 88 89 89 89 86 81 80 80 76 73 71 70 71 71 69 68 65 62 62 62 61 61 60 60 60 60 58 57 55 54 54 54 53 53 53 53 55 55 56 56 56 55 53 52 51 48 43 40 37 33 29 28 24 8 3 355 348 19 29 35 27 24 19 19 21 17 14 9
137 138 131 129 132 136 131 129 125 122 117 112 105 100 97 95 93 91 87 85 83 83 83 78 74 73 73 74 74 72 70 68 67 66 65 62 62 63 61 60 60 61 60 58 57 56 55 55 55 54 53 54 55 56 56 56 55 55 55 53 52 49 46 43 39 37 32 29 24 13 5 2 349 343 5 24 32 21 22 14 10 12 8 8 8
133 130 130 131 130 131 133 130 127 123 119 113 109 105 101 96 94 91 90 89 87 85 83 83 82 80 78 76 73 71 70 68 66 66 66 66 64 62 62 61 61 61 60 58 57 56 55 55 54 54 54 55 55 56 56 56 55 55 54 53 51 49 46 43 39 35 32 30 15 6 358 356 357 348 5 17 24 21 19 16 10 11 11 10 8
123 127 130 129 129 133 132 130 129 126 121 116 111 107 102 98 95 93 91 89 88 87 84 82 81 78 77 74 73 71 68 67 67 67 67 65 64 63 62 62 61 60 60 59 58 56 55 55 54 54 55 55 56 56 56 56 55 54 53 53 52 50 47 43 40 34 30 23 16 5 354 352 355 356 348 20 22 22 19 18 14 16 13 11 9
126 130 129 129 131 132 132 130 129 126 122 117 112 108 103 99 97 95 93 91 90 87 86 82 79 77 74 74 73 71 69 67 66 66 65 65 64 63 62 61 60 60 59 60 59 57 56 55 55 55 56 56 57 57 57 56 55 55 54 54 53 51 48 44 39 36 25 16 8 7 357 350 346 344 357 21 24 25 18 19 14 12 13 11 7
128 128 129 128 132 133 130 130 129 126 122 117 112 107 104 101 98 96 94 92 90 89 88 83 80 78 75 73 71 69 66 65 65 65 64 64 63 62 61 61 60 59 59 59 59 57 57 56 57 56 57 58 57 57 57 57 55 54 54 54 53 53 51 45 39 31 24 15 9 5 352 354 334 325 16 19 20 22 17 17 16 13 13 10 13
128 126 124 126 132 131 130 131 129 126 122 117 112 108 105 102 99 97 95 94 92 89 86 85 83 79 78 75 72 68 66 63 62 63 62 63 62 61 61 60 61 60 61 60 58 57 58 58 58 58 58 58 58 58 58 57 56 55 55 55 54 54 52 45 37 23 20 16 10 1 347 349 351 289 22 22 23 21 16 16 15 13 12 9 10
125 123 124 130 131 131 131 131 129 126 123 118 113 108 106 103 101 98 96 95 93 91 88 86 83 81 77 74 72 70 67 64 63 62 61 61 61 61 61 61 61 62 62 61 59 59 59 59 58 58 59 58 59 59 60 60 58 57 56 55 54 54 50 43 36 22 18 10 5 359 352 338 332 12 21 22 18 19 18 15 16 14 11 7 7
126 127 128 128 129 132 130 129 127 126 123 117 112 109 106 104 101 99 97 96 94 92 90 87 84 81 79 76 74 70 67 64 62 61 61 61 62 61 61 62 63 63 62 61 61 60 59 59 58 58 59 58 59 60 61 61 59 58 57 57 56 52 46 43 30 23 16 7 358 354 353 336 308 19 22 19 16 18 17 13 14 13 6 10 9
128 128 127 127 131 130 127 125 125 125 122 116 114 111 107 104 101 99 97 96 94 92 90 87 83 79 77 76 73 69 66 63 60 60 61 62 62 61 62 63 64 63 63 63 61 60 59 59 58 58 58 59 60 61 62 61 60 59 59 58 58 53 44 34 31 21 15 3 351 348 353 337 311 22 21 19 15 16 17 13 12 7 13 9 9
128 126 126 124 127 125 120 117 118 123 121 117 115 111 108 105 102 99 97 96 94 92 89 85 82 78 76 74 71 68 66 63 60 58 57 61 62 61 61 62 63 63 63 62 62 61 59 59 59 58 59 60 61 62 63 63 61 60 59 58 57 55 49 32 28 18 5 360 357 349 341 342 341 23 20 19 15 16 15 12 10 8 9 6 2
122 124 118 117 119 117 115 114 117 120 118 117 115 112 109 106 102 100 98 96 94 91 87 84 80 78 75 72 71 69 66 65 62 58 56 57 60 61 61 61 63 62 62 62 61 61 60 59 58 58 59 61 62 63 64 63 62 60 58 57 57 54 49 45 26 14 2 358 356 356 334 319 2 20 21 19 13 15 12 11 11 5 5 3 2
115 114 113 112 110 112 112 111 117 115 114 114 113 111 108 105 102 100 97 94 91 88 86 83 80 78 75 71 69 68 66 64 63 60 57 55 56 59 60 60 61 62 62 61 60 61 61 60 58 56 58 62 63 65 65 64 62 61 59 57 55 52 49 45 29 13 6 4 354 343 337 294 12 19 16 19 14 12 12 10 7 4 6 1 1
102 108 108 109 105 103 100 99 101 102 105 105 105 106 106 103 100 97 95 93 90 86 84 81 79 76 72 69 68 67 65 63 62 61 60 57 55 55 57 59 60 60 61 61 61 60 61 61 59 56 55 61 64 66 66 65 64 63 60 57 54 51 47 42 32 20 9 0 354 336 303 18 12 20 17 14 18 11 12 5 7 5 3 360 356
97 96 102 104 100 99 96 98 95 94 92 91 95 101 104 103 100 96 92 90 88 85 83 81 78 75 71 67 62 61 61 61 60 61 59 59 57 51 53 56 58 59 59 60 60 60 60 61 61 58 54 56 64 66 67 65 65 64 62 59 54 49 44 36 28 20 12 357 346 346 328 21 16 16 19 15 14 13 8 10 8 2 1 0 1
104 101 98 92 102 98 99 96 95 93 90 88 88 89 95 98 97 94 92 90 87 85 82 79 76 73 71 68 64 54 48 51 57 50 58 57 56 55 53 53 55 56 57 57 57 58 58 59 62 61 56 53 54 63 68 67 66 63 61 58 54 47 36 31 26 21 9 2 351 319 16 19 16 17 17 16 16 11 8 10 3 6 4 4 4
109 103 104 106 100 101 98 97 95 93 90 87 82 81 79 83 88 93 91 90 87 84 79 74 69 70 69 68 63 57 51 46 46 48 49 51 55 53 54 53 53 54 55 55 54 56 59 59 62 63 59 54 46 38 54 68 64 62 58 54 49 41 35 32 26 18 12 353 357 331 21 23 17 13 19 15 14 13 12 5 8 5 7 4 1
130 120 99 112 109 102 104 103 98 92 93 89 85 82 86 85 85 82 78 78 79 77 76 75 72 66 69 65 60 59 56 55 51 54 48 47 47 53 51 51 52 51 52 52 52 53 56 58 59 62 61 54 47 34 23 36 59 63 58 50 41 40 35 32 28 19 17 351 348 13 21 24 21 14 18 17 15 15 10 7 8 8 4 3 4
135 130 124 115 113 113 108 104 100 101 97 92 89 89 88 90 83 81 82 82 80 76 76 75 77 75 72 70 68 58 52 51 60 63 57 50 49 50 48 46 47 49 47 47 49 49 49 54 55 55 54 47 39 33 32 36 25 47 43 37 41 37 35 31 30 26 17 357 327 24 22 22 22 18 18 16 17 14 8 7 7 8 4 5 4
133 138 132 118 125 117 114 109 109 109 104 101 95 89 88 87 87 86 87 88 81 79 76 76 79 78 77 76 72 68 59 47 53 55 54 45 39 40 43 41 38 40 44 40 35 40 42 40 47 50 42 36 39 28 32 24 34 31 35 37 44 37 37 34 35 26 14 1 350 25 22 20 22 18 18 15 16 12 10 8 9 9 6 7 5
139 126 123 133 130 125 118 111 116 113 112 108 103 100 97 90 86 86 88 86 83 77 75 75 76 79 76 80 79 73 63 55 52 49 49 48 46 42 35 35 34 33 35 39 37 29 33 31 32 41 38 33 33 23 22 27 20 23 37 36 43 39 39 39 36 29 13 5 357 24 21 20 21 20 18 16 16 14 13 12 10 10 6 9 7
137 141 141 131 132 127 125 123 116 113 108 111 113 112 106 102 98 95 89 78 83 77 70 75 74 70 79 86 83 71 63 58 51 54 53 48 49 42 38 34 35 34 29 39 36 32 28 31 36 42 33 36 37 27 16 29 15 14 33 36 37 38 45 43 37 32 17 6 357 22 21 22 20 20 17 17 16 16 15 12 12 9 9 10 7
151 140 142 135 133 123 122 122 120 115 110 112 106 106 101 104 104 102 97 87 82 83 72 75 70 69 72 77 84 78 68 65 59 57 58 48 53 41 38 34 38 34 27 41 35 30 31 30 37 36 33 41 33 28 27 27 20 26 29 29 28 45 49 45 41 35 19 13 359 17 24 24 20 19 17 16 17 16 16 14 13 10 10 10 6
143 140 142 140 140 131 128 128 125 121 119 114 109 107 117 113 107 99 89 93 86 80 78 73 71 67 68 74 84 83 89 75 65 63 60 57 51 44 39 38 34 33 27 45 39 27 28 27 36 36 34 34 35 27 24 20 14 28 29 7 16 42 49 47 47 35 27 15 3 15 26 24 22 19 17 17 18 17 16 15 13 11 9 7 6
146 148 145 142 145 140 132 128 129 124 121 115 108 111 111 107 106 102 99 98 88 82 84 74 70 67 60 71 83 91 84 78 72 68 70 61 51 42 39 38 35 28 29 38 38 29 28 24 28 40 42 36 32 25 23 16 19 26 17 8 17 31 36 46 45 35 29 25 9 16 26 24 22 20 18 18 18 19 16 16 14 10 9 6 3
157 147 143 146 145 139 134 130 129 127 119 112 111 112 106 103 101 91 97 96 89 87 77 70 61 69 66 69 75 91 85 85 82 68 75 67 53 42 41 35 37 25 29 36 21 35 29 22 27 39 43 37 36 9 34 23 22 11 6 15 26 20 30 51 46 43 40 26 20 17 23 23 23 20 18 17 18 18 16 16 15 11 8 4 2
147 148 142 147 144 137 131 121 110 117 114 112 115 105 99 102 98 95 85 84 93 89 75 74 65 61 67 70 78 79 81 79 82 82 78 74 58 46 39 31 36 24 25 29 15 33 23 40 31 35 39 38 38 15 36 33 21 14 356 25 10 23 40 44 56 47 42 27 27 25 16 22 22 21 19 17 17 16 16 15 14 11 7 4 0
155 152 144 143 140 135 124 110 103 84 98 100 97 102 106 106 99 98 90 86 92 84 78 72 71 63 62 76 76 75 81 77 89 81 77 69 57 49 38 37 30 18 21 19 19 17 24 22 33 39 54 51 46 37 31 42 29 10 350 17 10 40 36 44 62 53 43 36 32 24 18 18 18 21 19 19 15 15 14 15 13 11 6 3 359
128 139 142 143 139 134 129 137 139 135 122 121 111 99 108 110 99 96 96 91 86 84 80 77 72 66 65 68 71 72 66 87 75 77 77 70 62 51 43 38 27 18 16 13 25 23 32 29 31 12 57 51 44 31 25 35 31 2 360 14 28 34 35 61 61 54 45 40 31 25 21 15 13 16 16 19 17 15 14 14 13 10 5 2 358
146 148 140 139 136 128 128 122 118 116 114 108 105 108 103 92 95 99 97 94 84 88 84 74 74 65 64 63 70 71 72 65 85 76 73 74 65 55 48 35 19 19 16 18 31 22 30 32 17 21 35 39 38 28 27 20 358 348 26 13 40 41 52 62 60 62 55 43 30 31 16 14 15 16 11 12 15 15 15 13 12 9 5 1 358
136 143 146 141 139 134 130 121 122 116 114 103 103 101 87 86 90 89 93 95 91 90 80 75 69 62 66 58 66 76 65 68 71 85 73 73 68 57 45 32 20 23 32 21 31 25 36 39 19 30 33 39 36 32 30 22 1 14 12 23 42 49 55 67 68 62 55 40 40 27 15 17 14 17 18 6 10 9 16 13 11 10 5 1 357
144 140 133 130 116 106 104 104 114 114 112 112 104 100 97 91 91 96 87 90 92 85 78 75 72 62 60 67 66 73 67 68 72 79 81 70 72 65 47 31 27 33 35 25 30 31 19 40 32 29 42 35 26 24 25 15 10 19 13 39 46 56 65 66 67 65 50 54 40 23 17 17 17 19 20 11 9 4 13 13 11 10 6 1 357
141 136 136 126 123 123 135 141 134 125 120 115 112 106 107 107 104 97 98 88 90 89 79 80 72 65 57 69 64 72 69 72 73 75 85 75 70 69 46 39 34 43 38 28 36 23 26 33 31 33 57 53 35 21 17 18 9 15 28 51 40 53 58 68 78 75 56 60 40 24 19 16 22 23 13 15 7 4 5 8 10 10 6 2 358
137 135 132 131 122 117 116 114 116 115 117 118 116 112 109 103 96 91 89 90 85 81 81 80 74 66 65 70 69 75 73 72 72 78 84 82 75 71 54 40 41 44 48 41 36 23 31 28 38 31 45 53 39 25 8 1 7 22 45 51 36 52 51 59 60 55 58 58 48 29 17 18 21 16 15 12 7 3 1 357 2 4 3 1 358
130 131 126 125 124 130 127 128 123 117 109 109 106 101 98 90 87 89 92 90 80 75 78 78 71 67 65 74 77 76 77 71 76 78 87 76 69 58 55 37 44 48 54 49 37 25 31 25 46 43 50 65 61 32 14 334 10 42 60 36 35 32 38 67 47 53 48 44 49 29 23 26 17 15 13 8 4 3 354 352 345 354 354 357 357
129 131 127 127 124 120 119 125 130 123 115 110 113 111 104 107 111 97 91 90 93 89 67 80 75 74 70 75 79 80 78 79 74 79 81 77 72 63 62 42 47 52 56 52 33 28 21 16 33 48 51 62 54 35 21 19 29 51 75 33 16 13 58 51 49 62 46 34 33 22 31 25 25 8 10 4 2 357 352 347 351 350 351 351 355
131 134 132 133 137 139 140 140 141 134 131 131 130 133 130 104 68 149 133 140 119 101 85 78 79 77 78 78 81 82 82 79 68 74 77 81 78 74 70 54 50 57 61 59 39 31 19 357 41 37 48 47 28 14 18 13 79 97 13 18 341 352 37 38 24 46 47 6 8 33 22 32 16 12 1 357 357 353 347 348 344 345 351 351 348
151 147 148 148 144 143 145 140 141 140 141 145 145 142 149 158 151 162 145 143 132 133 113 97 100 82 78 76 81 80 78 75 78 79 82 89 89 78 71 67 64 66 68 58 46 37 26 28 347 59 36 67 53 16 1 25 24 143 145 293 335 315 283 328 1 1 55 13 349 42 32 35 16 359 355 359 355 350 344 342 345 350 352 353 350
152 153 151 148 149 151 151 145 143 143 146 147 144 147 149 121 125 146 149 126 78 107 109 107 100 94 73 75 79 80 83 76 76 85 87 84 94 92 80 74 56 65 74 54 44 40 32 32 27 87 78 53 74 40 23 33 109 227 231 101 14 6 333 340 346 356 346 353 337 26 44 39 12 355 351 351 358 348 339 347 352 351 350 352 350
156 157 158 154 152 153 151 145 140 138 142 150 146 121 102 90 81 112 89 94 137 104 88 98 105 97 79 74 67 83 83 86 81 82 86 86 95 97 93 75 71 64 81 82 55 50 31 32 35 39 91 62 27 21 34 16 16 182 25 63 245 66 352 313 318 294 293 304 8 356 46 28 10 357 1 5 351 340 342 347 353 349 348 348 348
166 166 164 163 163 160 157 157 155 152 149 151 138 117 107 87 94 84 86 82 67 79 112 114 144 126 108 82 82 87 91 93 86 88 100 100 91 97 93 90 87 68 78 79 68 57 43 39 41 60 52 108 59 15 10 27 31 19 118 63 8 23 275 273 339 284 319 338 339 346 29 17 9 352 350 344 345 348 343 347 348 345 348 346 348
169 167 161 160 158 159 153 151 144 143 150 150 138 142 143 140 147 149 150 118 138 168 193 184 180 172 159 124 89 91 105 96 91 97 104 108 99 95 97 96 90 84 80 82 81 67 42 42 31 66 72 50 115 65 7 1 35 45 47 79 126 182 302 300 31 325 319 216 263 293 352 14 2 344 336 349 353 342 343 341 343 341 343 347 345
168 157 161 163 161 162 162 159 155 149 150 152 150 152 153 160 176 182 177 183 184 210 149 129 156 123 117 123 116 93 98 108 97 102 101 103 104 97 99 99 100 101 91 83 79 76 66 55 36 57 56 68 65 78 46 315 348 43 46 64 67 46 66 35 3 289 341 318 322 349 330 347 352 338 328 346 338 339 336 343 339 335 341 340 345
159 157 162 165 168 167 165 162 155 151 159 159 163 165 173 173 177 184 184 188 195 185 164 139 118 126 122 123 114 92 75 97 115 108 111 114 112 101 104 109 110 102 93 90 100 100 85 58 61 65 68 63 65 91 78 17 84 20 39 55 43 43 43 46 33 109 167 310 318 313 148 8 331 330 300 334 342 339 331 335 335 332 335 338 343
164 165 168 169 163 159 158 155 163 158 165 167 170 178 176 174 183 178 188 183 143 130 125 119 134 138 121 115 107 96 85 65 96 113 114 120 111 117 112 115 110 102 99 102 93 90 92 96 80 74 76 67 66 83 84 60 58 66 50 41 46 56 47 54 21 29 105 46 290 333 322 334 288 242 342 321 311 332 323 316 317 328 332 337 343
163 164 156 160 165 162 164 166 168 165 164 173 178 178 178 174 178 189 187 172 136 120 135 148 145 149 143 137 122 123 126 107 81 88 95 100 113 112 123 130 124 117 105 113 104 91 85 86 96 100 95 90 78 94 99 94 77 71 72 85 82 42 52 28 29 19 24 122 240 303 318 325 332 307 337 327 338 333 328 322 322 320 327 339 342
170 171 169 171 170 174 171 173 172 162 168 178 179 184 181 183 189 194 190 175 161 154 155 153 145 166 163 156 153 157 151 143 122 85 112 123 123 123 132 144 129 113 117 118 116 114 110 105 100 91 93 107 101 95 93 87 88 81 72 74 77 95 168 142 165 40 103 41 337 306 308 260 270 303 296 348 324 311 307 309 310 320 332 335 339